CW3742 Weather Reports


time (UTC)temp
C
wind
direction
speed
KPH
gust
KPH
rain 1hr
cm
rain 24hr
cm
rain mn
cm
humidity
%
barometer
mb
20260901093017 24 203 4.8 9.7 0.00 0.00 0.00 85 995.2
20260901090017 25 203 6.4 11.3 0.00 0.00 0.00 84 995.3
20260901083017 25 203 4.8 9.7 0.00 0.00 0.00 83 995.2
20260901080017 26 225 6.4 9.7 0.00 0.00 0.00 81 995.3
20260901073017 26 225 6.4 12.9 0.00 0.00 0.00 81 995.4
20260901070017 26 203 6.4 11.3 0.00 0.00 0.00 81 995.5
20260901063057 26 203 4.8 9.7 0.00 0.00 0.00 82 995.4
20260901060017 26 225 6.4 9.7 0.00 0.00 0.00 81 995.3
20260901053017 26 203 6.4 9.7 0.00 0.00 0.00 81 995.1
20260901050017 26 203 6.4 9.7 0.00 0.00 0.00 82 995.1
20260901043036 26 203 4.8 9.7 0.00 0.00 0.00 82 994.9
20260901040016 27 203 6.4 9.7 0.00 0.00 0.00 81 994.8
20260901033017 27 203 6.4 9.7 0.00 0.00 0.00 81 994.8
20260901030016 27 203 6.4 9.7 0.00 0.00 0.00 80 994.8
20260901023019 28 203 6.4 11.3 0.00 0.00 0.00 79 994.7
20260901020017 28 203 6.4 11.3 0.00 0.00 0.00 79 994.5
20260901013019 28 203 6.4 8.0 0.00 0.00 0.00 78 994.3
20260901010017 29 203 6.4 9.7 0.00 0.00 0.00 77 994.0
20260901003037 30 203 4.8 8.0 0.00 0.00 0.00 74 993.8
20260901000017 31 203 4.8 9.7 0.00 0.00 0.00 71 993.8
20260831233017 32 225 6.4 9.7 0.00 0.00 0.00 69 993.9
20260831230017 32 225 8.0 11.3 0.00 0.00 0.00 65 993.8
20260831223017 32 203 8.0 16.1 0.00 0.00 0.00 65 993.6
20260831220037 33 225 9.7 17.7 0.00 0.00 0.00 63 993.8
20260831213017 33 225 9.7 17.7 0.00 0.00 0.00 60 993.8
20260831210017 33 225 9.7 17.7 0.00 0.00 0.00 60 994.0
20260831203017 32 225 9.7 17.7 0.00 0.00 0.00 60 994.0
20260831200017 32 225 11.3 22.5 0.00 0.00 0.00 62 994.0
20260831193037 33 225 12.9 24.1 0.00 0.00 0.00 58 994.1
20260831190017 32 225 12.9 25.7 0.00 0.00 0.00 57 994.0
20260831183018 32 225 14.5 24.1 0.00 0.00 0.00 58 994.3
20260831180017 32 225 12.9 25.7 0.00 0.00 0.00 58 994.3
20260831173017 32 225 14.5 24.1 0.00 0.00 0.00 62 994.4
20260831170017 31 225 12.9 24.1 0.00 0.00 0.00 63 994.6
20260831163017 30 225 14.5 24.1 0.00 0.00 0.00 65 994.8
20260831160017 29 225 16.1 27.4 0.00 0.00 0.00 64 994.7
20260831153018 29 225 17.7 35.4 0.00 0.00 0.00 64 994.5
20260831150017 28 225 17.7 32.2 0.00 0.00 0.00 65 994.2
20260831143017 27 203 17.7 32.2 0.00 0.00 0.00 67 994.2
20260831140037 26 203 17.7 33.8 0.00 0.00 0.00 69 994.2
20260831133017 26 203 17.7 32.2 0.00 0.00 0.00 69 994.0
20260831130017 26 203 16.1 32.2 0.00 0.00 0.00 71 994.0
20260831123017 25 203 16.1 30.6 0.00 0.00 0.00 71 994.1
20260831120017 25 203 16.1 33.8 0.00 0.00 0.00 71 993.9
20260831113039 25 203 14.5 30.6 0.00 0.00 0.00 71 993.8
20260831110017 25 203 14.5 27.4 0.00 0.00 0.00 72 993.8
20260831103019 24 180 11.3 20.9 0.00 0.00 0.00 75 993.9
20260831100017 24 180 12.9 22.5 0.00 0.00 0.00 75 993.8